Location: Burbank
(38.7788°N, 114.0429°W)
Time: 14:50:08
(UTC+00:00)

Vanguard 2 - Pass Details

Date: 11 May 2026
Orbit: 553 x 2894 km, 32.9° (Epoch: 6 June)

Event Time Altitude Azimuth Distance (km) Brightness Sun altitude
Rises 09:26:46 0° 224° (SW) 6,537 - -27.3°
Reaches altitude 10° 09:31:17 10° 218° (SW) 5,642 - -26.8°
Exits shadow 09:40:15 33° 197° (SSW) 4,088 10.6 -25.9°
Maximum altitude 09:47:22 45° 153° (SSE) 3,449 10.5 -25.1°
Drops below altitude 10° 10:00:54 10° 88° (E) 4,823 12.1 -23.5°
Sets 10:04:23 0° 82° (E) 5,554 12.6 -23.1°
